Regional Weather Roundup
Issued by NWS

Home | Current Version | Previous Version | Graphics & Text | Print | Product List | Glossary On
Versions: 1 2 3 4 5 6 7 8 9 10 11 12 13 14 15 16 17 18 19 20 21 22 23 24 25 26 27 28 29 30 31 32 33 34 35 36 37 38 39 40 41 42 43 44 45 46 47 48 49 50
000
ASUS45 KPSR 072310
RWRAZ

ARIZONA HOURLY REGIONAL WEATHER ROUNDUP
NATIONAL WEATHER SERVICE PHOENIX AZ
400 PM MST TUE JUL 07 2015

NOTE: FAIR INDICATES FEW OR NO CLOUDS BELOW 12,000 FEET WITH NO
SIGNIFICANT WEATHER AND/OR OBSTRUCTIONS TO VISIBILITY.

AZZ001>003-036-080000-
NORTHWEST ARIZONA

CITY           SKY/WX    TMP DP  RH WIND       PRES   REMARKS
BULLHEAD CITY  PTSUNNY  104  48  15 SW7G20    29.69F HX 100
KINGMAN        MOSUNNY   95  47  19 W12       29.93F
$$

AZZ004>008-015-016-018-080000-
NORTH CENTRAL ARIZONA

CITY           SKY/WX    TMP DP  RH WIND       PRES   REMARKS
GRAND CANYON   PTSUNNY   76  44  32 SW12G21   30.17F
WILLIAMS       PTSUNNY   75  46  35 W13       30.27S
PRESCOTT       PTSUNNY   77  54  44 E10       30.07F
FLAGSTAFF      TSTM      55  51  86 SW5       30.24F
PAYSON         PTSUNNY   82  37  20 NW8       30.10F
PAGE           PTSUNNY   85  50  29 VRB5      29.98F
$$

AZZ009>014-017-080000-
NORTHEAST ARIZONA

CITY           SKY/WX    TMP DP  RH WIND       PRES   REMARKS
WINSLOW        CLOUDY    78  52  40 NW15      30.05S
SAINT JOHNS    MOSUNNY   85  41  21 W12G18    30.07F
SHOW LOW       MOSUNNY   77  45  31 W10G17    30.16F
$$

AZZ023-080000-
GREATER PHOENIX AREA

CITY           SKY/WX    TMP DP  RH WIND       PRES   REMARKS
PHOENIX        MOSUNNY  107  48  14 SW9       29.73F HX 103
BUCKEYE        SUNNY    104  48  15 SW9       29.75F HX 100
GLENDALE       MOSUNNY  106  50  15 S10G17    29.76F HX 103
LUKE AFB       SUNNY    106  52  16 SW8G17    29.73F HX 103
DEER VALLEY    MOSUNNY  102  50  17 S12G18    29.76F
SCOTTSDALE     SUNNY    103  48  15 SW9G17    29.78F
MESA-FALCON    PTSUNNY  106  52  16 SW12      29.77F HX 103
MESA-GATEWAY   MOSUNNY  102  54  19 W12       29.79F HX 100
CHANDLER       MOSUNNY  102  54  19 W7        29.76F HX 100
$$

AZZ027-028-080000-
SOUTHWEST MARICOPA COUNTY AND PINAL COUNTY

CITY           SKY/WX    TMP DP  RH WIND       PRES   REMARKS
CASA GRANDE    MOSUNNY  102  55  21 CALM      29.77F HX 101
GILA BEND      MOSUNNY  108  42  11 SW12      29.72F HX 103
$$

AZZ503-504-507>509-080000-
SOUTHEAST ARIZONA

CITY           SKY/WX    TMP DP  RH WIND       PRES   REMARKS
TUCSON         PTSUNNY  100  54  21 VRB3      29.89F
DAVIS-MONTHAN  SUNNY     97  56  24 W6        29.87F
NOGALES        MOSUNNY   94  53  25 W12G18    29.98F
SIERRA VISTA   PTSUNNY   84  59  43 W9        30.07F
DOUGLAS        PTSUNNY   86  56  35 W7        30.01S
SAFFORD        PTSUNNY   94  55  26 NW20      29.89F
$$

AZZ020-021-025-026-031-080000-
SOUTHWEST ARIZONA

CITY           SKY/WX    TMP DP  RH WIND       PRES   REMARKS
YUMA           MOSUNNY  108  46  12 S7        29.69F HX 104
$$

CAZ031-033-041-043-047-048-061-080000-
SOUTHERN CALIFORNIA

CITY           SKY/WX    TMP DP  RH WIND       PRES   REMARKS
DOWNTOWN L.A.  SUNNY     74  61  63 CALM      29.90F
L.A. AIRPORT   MOSUNNY   70  61  73 W12       29.91F
SAN DIEGO      PTSUNNY   70  58  65 SW9       29.93F
BURBANK        SUNNY     79  60  52 S10       29.88F
ONTARIO        MOSUNNY   84  58  40 W14       29.88F
RIVERSIDE      SUNNY     85  59  41 W14G22    29.87F
PALM SPRINGS   SUNNY    106  50  15 NW16G26   29.72F HX 103
EL CENTRO NAS  MOSUNNY  108  43  11 S6        29.68F HX 103
IMPERIAL       MOSUNNY  108  49  14 W9        29.66F HX 104
BLYTHE         SUNNY    108  51  15 S16       29.69F HX 105
NEEDLES        MOSUNNY  110  44  11 S15G21    29.70F HX 105
$$

NVZ020-UTZ003-080000-
SOUTHERN NEVADA-UTAH

CITY           SKY/WX    TMP DP  RH WIND       PRES   REMARKS
LAS VEGAS      MOSUNNY   98  48  18 VRB3      29.77F
SALT LAKE CITY CLOUDY    83  54  36 N6        29.97S
$$

NMZ009-TXZ055-080000-
NEW MEXICO-WEST TEXAS

CITY           SKY/WX    TMP DP  RH WIND       PRES   REMARKS
ALBUQUERQUE    TSTM      68  54  60 N18G36    30.12S
EL PASO        MOSUNNY   95  54  25 VRB3      29.93F
$$


........................KEY........................
SKY/WX - SKY CONDITION/WEATHER
TMP    - TEMPERATURE IN FAHRENHEIT
DP     - DEW POINT IN FAHRENHEIT
RH     - RELATIVE HUMIDITY IN PERCENT
WIND   - DIRECTION AND SPEED IN MILES PER HOUR (MPH)
VRB    - VARIABLE WIND DIRECTION
PRES   - MEAN SEA LEVEL PRESSURE IN INCHES OF MERCURY
         F - FALLING PRESSURE   R - RISING PRESSURE
         S - STEADY PRESSURE
VSB    - VISIBILITY IN MILES
HX     - HEAT INDEX IN FAHRENHEIT
WCI    - WIND CHILL INDEX IN FAHRENHEIT
TC     - TEMPERATURE IN CELSIUS WHICH IS ALSO KNOWN AS
         TEMPERATURE IN CENTIGRADE
AFB    - AIR FORCE BASE
         LUKE AFB IS LUKE AIR FORCE BASE
         DAVIS-MONTHAN IS DAVIS-MONTHAN AIR FORCE BASE
NAS    - NAVAL AIR STATION
         EL CENTRO NAS IS EL CENTRO NAVAL AIR STATION
N/A    - NOT AVAILABLE



USA.gov is the U.S. government's official web portal to all federal, state and local government web resources and services.